Tracking 19817 objects as of 18-Aug-2019
HD Live streaming from Space Station
objects crossing your sky now

SL-18 DEB


SL-18 DEB is no longer on orbit


NORAD ID: 28966
Int'l Code: 1993-014AT
Perigee: N/A
Apogee: N/A
Inclination: N/A
Period: N/A
Semi major axis: N/A
RCS: N/A
Launch date: March 25, 1993
Source: Commonwealth of Independent States (former USSR) (CIS)
Launch site: PLESETSK MISSILE AND SPACE COMPLEX (PKMTR)
Decay date: 2012-06-22

Note: This is SATELLITE DEBRIS
aabbcc
Your satellite tracking list
Your tracking list is empty




NASA's NSSDC Master Catalog

Two Line Element Set (TLE):
1 28966U 93014AT  12170.89374862  .02900292  00000-0  29495-1 0  9990
2 28966 075.7360 010.4918 0014365 225.4978 138.9253 15.61552288379340
Source of the keplerian elements: AFSPC